sat.trackr.live / text

‹ back to catalog

STARLINK-36919

NORAD 68053 · 2026-041P

PAYLOAD ACTIVE UNKNOWN

§ Identity

Operator
Country
US
Launch date
2026-03-02
Launch site
AFETR
Launch vehicle
Mass (kg)
RCS (m²)

Purposes: comms

External: N2YO · Heavens-Above · Gunter

§ Orbital elements

Epoch: 2026-09-19T14:41:31.035264Z

Period
93.85 min
Inclination
53.1603°
Eccentricity
0.0000886
Mean motion
15.34394641 rev/d
Perigee alt
462.1 km
Apogee alt
463.3 km
Semi-major
6,840.9 km
B*
5.0068e-4
RAAN
225.9255°
Arg perigee
109.8908°
Mean anomaly
250.2190°
Rev number
3,112

§ Raw data

STARLINK-369191 68053U 26041P   26262.61216476  .00016575  00000+0  50068-3 0  99912 68053  53.1603 225.9255 0000886 109.8908 250.2190 15.34394641 31125

JSON: /api/v1/satellites/68053 · /tle

For live sub-satellite position, see the globe view (requires WebGL).

§ Visibility from observer

Set your observer location to see the next 7 days of passes ≥ 10°. The values pass through the URL so the page stays shareable.

No JS? Fill the form by hand. The geolocation button needs JavaScript.